Location: Elstree
(51.6403°N, 0.2969°W)
Time: 23:12:15
(UTC+00:00)

deb Delta 107 - Visible Passes

Search period start: 28 January 2022 00:00
Search period end: 07 February 2022 00:00
Orbit: 707 x 861 km, 97.7° (Epoch: 28 January)

Date Brightness Start Highest point End Pass type
(mag) Time Alt. Az. Time Alt. Az. Time Alt. Az.
28 Jan ? 05:14:44 10° ENE 05:16:54 13° E 05:19:04 10° ESE visible
28 Jan ? 06:52:20 10° NNE 06:57:09 85° ESE 07:02:02 10° SSW visible
28 Jan ? 18:15:32 10° S 18:20:18 45° W 18:24:58 10° NNW visible
29 Jan ? 06:21:13 10° NNE 06:25:51 47° E 06:30:34 10° S visible
29 Jan ? 17:44:01 10° S 17:49:00 80° WSW 17:53:52 10° NNW visible
29 Jan ? 19:27:15 10° WSW 19:29:17 12° W 19:31:18 10° WNW visible
30 Jan ? 05:50:23 10° NE 05:54:27 26° E 05:58:33 10° SSE visible
30 Jan ? 18:53:52 10° SW 18:57:41 22° W 19:01:28 10° NW visible
31 Jan ? 05:20:08 10° NE 05:22:53 15° E 05:25:40 10° ESE visible
31 Jan ? 06:58:12 10° NNE 07:03:02 85° WNW 07:07:57 10° SSW visible
31 Jan ? 18:21:37 10° SSW 18:26:14 39° W 18:30:45 10° NNW visible
01 Feb ? 06:27:02 10° NNE 06:31:46 54° E 06:36:36 10° S visible
01 Feb ? 17:50:00 10° S 17:54:54 70° WSW 17:59:43 10° NNW visible
01 Feb ? 19:34:26 10° W 19:35:17 10° W 19:36:10 10° WNW visible
02 Feb ? 05:56:07 10° NNE 06:00:23 30° E 06:04:44 10° SSE visible
02 Feb ? 17:18:50 10° SSE 17:23:41 66° ENE 17:28:27 10° N visible
02 Feb ? 19:00:10 10° SW 19:03:39 19° W 19:07:06 10° NW visible
03 Feb ? 05:25:39 10° NE 05:28:52 17° E 05:32:08 10° SE visible
03 Feb ? 18:27:44 10° SSW 18:32:09 34° W 18:36:31 10° NNW visible
04 Feb ? 06:32:51 10° NNE 06:37:41 62° E 06:42:37 10° S visible
04 Feb ? 17:55:58 10° S 18:00:47 61° W 18:05:34 10° NNW visible
05 Feb ? 06:01:52 10° NNE 06:06:20 35° E 06:10:54 10° SSE visible
05 Feb ? 17:24:42 10° SSE 17:29:33 76° ENE 17:34:21 10° N visible
05 Feb ? 19:06:32 10° SW 19:09:37 17° W 19:12:42 10° NW visible
06 Feb ? 05:31:15 10° NE 05:34:51 20° E 05:38:31 10° SE visible
06 Feb ? 18:33:52 10° SSW 18:38:05 29° W 18:42:17 10° NNW visible
